[[{"header":{"parameterUnit":"m.s-1","parameterCategory":2,"la1":30.2991,"la2":30.254,"lo1":-89.0895,"lo2":-89.0444,"dy":0.0017,"dx":0.0017,"nx":28,"ny":28,"refTime":"2025-05-25T21:00:00:Z","depth":"0","parameterNumber":2,"parameterNumberName":"U-component_of_CURRENTS"},"data":[0,0,0,0,0,0,0,0,0,0,0,0,0,0,0,0,0,0,0,0,0,0,0,0,0,0,0,0,0,0,0,0,0,0,0,0,0,0,0,0,0,0,0,0,0,0,0,0,0,0,0,0,0,0,0,0,0,0,-0.3562,-0.3562,0,-0.3488,-0.3486,-0.3485,-0.3482,-0.3483,-0.3484,-0.3486,-0.3453,-0.3451,-0.3449,0,0,0,0,0,0,0,0,0,0,0,0,0,-0.3544,-0.3545,-0.3562,-0.3562,-0.3561,-0.3488,-0.3486,-0.3485,-0.3482,-0.3483,-0.3485,-0.3486,-0.3454,-0.3451,-0.3449,0,0,0,0,0,0,0,0,0,0,0,0,0,-0.3516,-0.3545,-0.3562,-0.3553,-0.3552,-0.3488,-0.3486,-0.3485,-0.3481,-0.3483,-0.3485,-0.3487,-0.3454,-0.3451,-0.3448,-0.3393,0,0,-0.3439,-0.3438,0,0,0,0,0,0,0,0,-0.3518,-0.3516,-0.3555,-0.3554,-0.3552,-0.3499,-0.3468,-0.3457,-0.3481,-0.3504,-0.3486,-0.3488,-0.3473,-0.3469,-0.3445,-0.3391,-0.339,-0.3439,-0.3437,-0.3436,-0.3435,0,0,0,0,0,0,0,-0.352,-0.3518,-0.3529,-0.3555,-0.3553,-0.3499,-0.3498,-0.3465,-0.3477,-0.3502,-0.3503,-0.35,-0.3473,-0.3448,-0.3444,-0.339,-0.3439,-0.3436,-0.3435,-0.3433,-0.3331,-0.333,0,0,0,0,0,0,-0.3543,-0.3521,-0.3531,-0.3527,-0.3543,-0.3499,-0.3498,-0.3511,-0.3477,-0.3474,-0.3498,-0.35,-0.3452,-0.3448,-0.3443,-0.3335,-0.3436,-0.3433,-0.3431,-0.3332,-0.333,-0.3329,0,0,0,0,0,0,-0.3543,-0.3545,-0.3534,-0.3524,-0.352,-0.3499,-0.3513,-0.3509,-0.3483,-0.3474,-0.3472,-0.3478,-0.3453,-0.3447,-0.3407,-0.3336,-0.3432,-0.3429,-0.3333,-0.3331,-0.333,-0.3146,0,0,0,0,0,0,-0.3543,-0.3546,-0.3552,-0.3526,-0.3521,-0.345,-0.3512,-0.3506,-0.348,-0.3481,-0.3455,-0.3454,-0.3454,-0.3412,-0.3404,-0.3334,-0.3427,-0.3334,-0.3332,-0.333,-0.3153,-0.3138,-0.3126,0,0,0,0,0,-0.3543,-0.3507,-0.3553,-0.3554,-0.3535,-0.3447,-0.3435,-0.3425,-0.3478,-0.3419,-0.344,-0.3455,-0.3397,-0.3407,-0.3399,-0.3326,-0.3335,-0.3333,-0.3331,-0.3159,-0.3141,-0.3126,0,0,0,0,0,0,-0.3488,-0.3504,-0.3553,-0.3527,-0.3486,-0.3447,-0.3391,-0.3417,-0.3386,-0.3405,-0.3425,-0.3422,-0.3365,-0.3385,-0.3397,-0.3303,-0.3374,-0.337,-0.3247,-0.323,-0.3217,-0.3225,-0.3424,0,0,0,0,0,-0.3491,-0.3476,-0.3478,-0.345,-0.3429,-0.3424,-0.3393,-0.3395,-0.3373,-0.3361,-0.3346,-0.3355,-0.3347,-0.3323,-0.331,-0.3239,-0.3246,-0.3201,-0.3187,-0.3174,-0.3182,-0.3114,-0.3093,-0.3323,-0.3323,-0.3323,0,0,-0.345,-0.347,-0.3454,-0.3438,-0.3411,-0.3355,-0.3404,-0.3338,-0.33,-0.3362,-0.3284,-0.3298,-0.3325,-0.325,-0.3227,-0.3254,-0.3111,-0.3172,-0.316,-0.3175,-0.311,-0.3087,-0.3066,-0.3321,-0.3322,-0.3322,0,0,-0.3343,-0.3388,-0.3333,-0.3311,-0.3286,-0.3279,-0.3265,-0.3221,-0.32,-0.3143,-0.3196,-0.3167,-0.3132,-0.3119,-0.3124,-0.3032,-0.3048,-0.304,-0.2951,-0.2882,-0.2862,-0.2844,-0.28,-0.2779,-0.3021,-0.302,-0.302,0,-0.3312,-0.3278,-0.3288,-0.3242,-0.3225,-0.3249,-0.3186,-0.3149,-0.31,-0.3085,-0.3098,-0.3069,-0.3067,-0.3016,-0.2986,-0.2991,-0.2978,-0.2996,-0.2858,-0.2841,-0.2825,-0.2785,-0.2765,-0.3011,-0.3012,-0.3013,-0.3014,0,-0.3154,-0.3159,-0.3107,-0.3093,-0.3055,-0.2994,-0.2982,-0.2937,-0.2945,-0.2934,-0.2874,-0.2863,-0.2858,-0.2838,-0.288,-0.2782,-0.2816,-0.2847,-0.2884,-0.279,-0.2755,-0.2737,-0.2998,-0.3002,-0.3004,-0.3006,0,0,-0.3009,-0.3012,-0.2999,-0.3014,-0.2994,-0.2947,-0.2881,-0.2829,-0.2808,-0.2746,-0.2701,-0.2656,-0.2677,-0.2689,-0.2712,-0.2648,-0.2506,-0.2696,-0.2697,-0.2626,-0.2366,-0.2303,-0.2278,-0.2504,-0.2501,-0.2498,-0.2375,0,-0.2895,-0.2844,-0.2849,-0.2786,-0.2764,-0.2791,-0.2732,-0.2703,-0.268,-0.2626,-0.2616,-0.2582,-0.2612,-0.261,-0.2539,-0.2553,-0.2457,-0.2539,-0.2495,-0.2495,-0.2425,-0.2254,-0.2152,-0.2026,-0.2358,-0.2355,-0.2353,0,-0.2727,-0.2744,-0.2694,-0.272,-0.2701,-0.2663,-0.263,-0.2581,-0.2538,-0.2521,-0.2484,-0.2496,-0.2431,-0.2459,-0.2358,-0.2414,-0.2366,-0.2349,-0.2343,-0.2343,-0.2396,-0.2183,-0.1982,-0.1981,-0.2326,-0.2329,-0.233,0,-0.265,-0.2623,-0.2613,-0.2616,-0.2628,-0.2604,-0.2589,-0.2551,-0.2503,-0.2465,-0.2431,-0.2383,-0.2348,-0.229,-0.2267,-0.2303,-0.2151,-0.2196,-0.2076,-0.2074,-0.2011,-0.2007,-0.1782,-0.2058,-0.2059,-0.2059,-0.2059,0,-0.2558,-0.2538,-0.2588,-0.2595,-0.2544,-0.2567,-0.2499,-0.2481,-0.2437,-0.2363,-0.2378,-0.2297,-0.2297,-0.2228,-0.2214,-0.2086,-0.2094,-0.202,-0.201,-0.1944,-0.1937,-0.1961,-0.2009,-0.2054,-0.2055,-0.2056,-0.2057,0,-0.2477,-0.2521,-0.2506,-0.2531,-0.2523,-0.2488,-0.2443,-0.2388,-0.2374,-0.2278,-0.2262,-0.2207,-0.2117,-0.2109,-0.2019,-0.1989,-0.1863,-0.1854,-0.1791,-0.1773,-0.1662,-0.1707,-0.1524,-0.1485,-0.1685,-0.1683,-0.168,0,-0.244,-0.2441,-0.2453,-0.2423,-0.2432,-0.2392,-0.2349,-0.2346,-0.2291,-0.2197,-0.2135,-0.2042,-0.1923,-0.1795,-0.1743,-0.1666,-0.1711,-0.1537,-0.1563,-0.1587,-0.163,-0.1686,-0.1672,-0.1408,-0.1404,-0.14,-0.1398,0,-0.235,-0.2359,-0.2336,-0.2294,-0.2258,-0.2224,-0.2177,-0.2127,-0.2103,-0.2016,-0.187,-0.1773,-0.165,-0.1507,-0.1444,-0.1401,-0.1502,-0.1459,-0.1475,-0.1362,-0.1415,-0.1397,-0.1601,-0.1366,-0.1369,-0.1371,-0.1373,-0.1374,-0.2222,-0.2181,-0.2143,-0.2074,-0.2058,-0.2013,-0.1919,-0.1885,-0.1768,-0.1581,-0.1593,-0.1357,-0.1329,-0.1195,-0.1175,-0.1131,-0.1213,-0.1116,-0.1159,-0.1208,-0.1172,-0.1311,-0.1078,-0.108,-0.1081,-0.1082,-0.1083,0,-0.1972,-0.1951,-0.1911,-0.182,-0.1743,-0.1814,-0.1744,-0.1623,-0.1439,-0.1304,-0.1135,-0.0915,-0.085,-0.0877,-0.0895,-0.0863,-0.088,-0.0876,-0.0933,-0.0926,-0.1012,-0.1003,-0.0752,-0.0752,-0.0752,-0.0752,-0.0752,-0.0752,-0.1824,-0.1678,-0.1676,-0.1494,-0.1467,-0.1318,-0.1258,-0.1138,-0.1011,-0.0706,-0.0496,-0.0388,-0.0512,-0.0727,-0.0788,-0.0767,-0.0797,-0.0753,-0.0822,-0.0907,-0.0935,-0.0961,-0.096,-0.0704,-0.0704,-0.0688,-0.0688,-0.0688]},{"header":{"parameterUnit":"m.s-1","parameterCategory":2,"la1":30.2991,"la2":30.254,"lo1":-89.0895,"lo2":-89.0444,"dy":0.0017,"dx":0.0017,"nx":28,"ny":28,"refTime":"2025-05-25T21:00:00:Z","depth":"0","parameterNumber":3,"parameterNumberName":"V-component_of_CURRENTS"},"data":[0,0,0,0,0,0,0,0,0,0,0,0,0,0,0,0,0,0,0,0,0,0,0,0,0,0,0,0,0,0,0,0,0,0,0,0,0,0,0,0,0,0,0,0,0,0,0,0,0,0,0,0,0,0,0,0,0,0,-0.0517,-0.0512,0,-0.0067,-0.0062,-0.0057,0.0147,0.0146,0.0146,0.0145,0.0562,0.0573,0.0585,0,0,0,0,0,0,0,0,0,0,0,0,0,-0.0794,-0.0792,-0.0518,-0.0512,-0.0507,-0.0068,-0.0062,-0.0055,0.0147,0.0146,0.0145,0.0144,0.0558,0.0572,0.0586,0,0,0,0,0,0,0,0,0,0,0,0,0,-0.0541,-0.0792,-0.0518,-0.0355,-0.0336,-0.007,-0.0062,-0.0054,0.0147,0.0146,0.0145,0.0144,0.0553,0.057,0.0588,0.0719,0,0,0.0642,0.0649,0,0,0,0,0,0,0,0,-0.0556,-0.0531,-0.0384,-0.0366,-0.0344,-0.002,-0.0006,0.0202,0.0148,-0.0033,0.0145,0.0143,0.0363,0.0396,0.0488,0.0739,0.0757,0.0643,0.0654,0.0662,0.0667,0,0,0,0,0,0,0,-0.0574,-0.0546,-0.0336,-0.0379,-0.0354,-0.0164,-0.0133,0.0037,0.0167,-0.0017,-0.0002,0.0044,0.0374,0.047,0.0499,0.0763,0.0643,0.0659,0.0669,0.0676,0.1026,0.1025,0,0,0,0,0,0,-0.0655,-0.0565,-0.0351,-0.0323,-0.0458,-0.0161,-0.0125,-0.0121,0.0167,0.0209,0.0044,0.0051,0.0441,0.0478,0.0514,0.066,0.0662,0.0678,0.0688,0.1028,0.1026,0.1025,0,0,0,0,0,0,-0.0664,-0.0642,-0.0369,-0.0433,-0.0386,-0.0158,-0.0152,-0.0111,-0.0019,0.0213,0.0255,0.0092,0.0441,0.0489,0.0675,0.0677,0.0686,0.0702,0.1029,0.1027,0.1025,0.0967,0,0,0,0,0,0,-0.0674,-0.0649,-0.0657,-0.0441,-0.0385,-0.0225,-0.015,-0.0102,0.001,0.0024,0.0269,0.0307,0.0444,0.0647,0.0692,0.0702,0.0716,0.1031,0.1028,0.1026,0.0971,0.0964,0.0957,0,0,0,0,0,-0.0686,-0.0677,-0.0662,-0.0634,-0.0412,-0.0225,-0.0178,-0.0015,0.0012,0.0061,0.0228,0.0299,0.0659,0.0665,0.0716,0.0731,0.1032,0.1029,0.1026,0.0974,0.0965,0.0958,0,0,0,0,0,0,-0.0775,-0.065,-0.0628,-0.058,-0.0435,-0.0192,-0.0115,-0.0028,0.0149,0.0156,0.0348,0.0401,0.0544,0.0637,0.0637,0.0807,0.0832,0.0839,0.0773,0.0767,0.076,0.0744,0.0731,0,0,0,0,0,-0.0816,-0.0797,-0.0633,-0.0594,-0.0532,-0.0339,-0.0241,-0.0143,0.0037,0.0113,0.0283,0.0434,0.0576,0.067,0.0809,0.0952,0.0976,0.0965,0.0958,0.0953,0.0966,0.1004,0.1003,0.1015,0.1015,0.1015,0,0,-0.0835,-0.0767,-0.0751,-0.0615,-0.0488,-0.0363,-0.0281,-0.0147,-0.0036,0.0131,0.0326,0.0435,0.0603,0.0752,0.0817,0.0837,0.0948,0.0949,0.0944,0.0961,0.1001,0.1,0.0999,0.1013,0.1013,0.1013,0,0,-0.0836,-0.0815,-0.0783,-0.067,-0.0511,-0.0387,-0.0369,-0.015,-0.0053,0.0136,0.0251,0.0365,0.0617,0.0734,0.0823,0.0858,0.0905,0.0862,0.0851,0.0887,0.0887,0.0888,0.0864,0.0863,0.0868,0.0868,0.0868,0,-0.0863,-0.0804,-0.0733,-0.0645,-0.0541,-0.0415,-0.0312,-0.018,0.007,0.0151,0.0173,0.0484,0.061,0.0787,0.0788,0.0849,0.0852,0.0881,0.0881,0.0882,0.0884,0.086,0.086,0.0865,0.0865,0.0865,0.0866,0,-0.0805,-0.0752,-0.0709,-0.0585,-0.0476,-0.0364,-0.0198,-0.0093,0.0008,0.014,0.0308,0.0476,0.0647,0.0675,0.0769,0.0838,0.0825,0.0862,0.0906,0.088,0.0855,0.0856,0.086,0.0861,0.0862,0.0863,0,0,-0.0852,-0.0707,-0.0687,-0.0628,-0.0435,-0.0338,-0.0188,-0.0004,0.0073,0.0252,0.0366,0.0573,0.0609,0.0704,0.0791,0.0831,0.0823,0.0845,0.0849,0.0829,0.0853,0.0851,0.0852,0.086,0.0862,0.0862,0.0812,0,-0.081,-0.0688,-0.0608,-0.0464,-0.0371,-0.0237,-0.0118,0.0039,0.017,0.03,0.0433,0.0563,0.0636,0.0678,0.0738,0.0814,0.0831,0.083,0.0877,0.0877,0.0887,0.0857,0.0895,0.0856,0.0813,0.0814,0.0814,0,-0.0748,-0.0676,-0.0553,-0.0423,-0.0375,-0.0286,-0.0112,0.0009,0.0195,0.028,0.0419,0.0521,0.0642,0.0661,0.0786,0.078,0.0806,0.0843,0.0843,0.0874,0.088,0.0886,0.086,0.0961,0.0816,0.0816,0.0816,0,-0.0781,-0.0629,-0.0551,-0.0484,-0.0317,-0.026,-0.0179,-0.0001,0.008,0.0246,0.0296,0.0471,0.0528,0.062,0.0724,0.0744,0.0809,0.0847,0.0866,0.0863,0.0925,0.0927,0.1021,0.0897,0.0897,0.0897,0.0898,0,-0.0737,-0.0667,-0.0578,-0.0516,-0.0446,-0.0327,-0.025,-0.0133,-0.0012,0.0083,0.0249,0.0351,0.0517,0.0605,0.0688,0.0776,0.0781,0.0858,0.0864,0.0897,0.0897,0.1014,0.1049,0.0895,0.0896,0.0896,0.0897,0,-0.0737,-0.0684,-0.0585,-0.0468,-0.0452,-0.04,-0.032,-0.0269,-0.0154,-0.0034,0.0007,0.023,0.0367,0.0501,0.0632,0.0713,0.0853,0.0817,0.0814,0.0823,0.0958,0.0986,0.1054,0.1119,0.0836,0.0836,0.0836,0,-0.0709,-0.0662,-0.0577,-0.056,-0.0509,-0.0457,-0.0436,-0.034,-0.0294,-0.0072,-0.0031,0.0141,0.0343,0.051,0.0641,0.0751,0.0841,0.0826,0.0899,0.0968,0.1006,0.1021,0.1074,0.0924,0.0925,0.0925,0.0926,0,-0.0626,-0.0616,-0.0551,-0.0541,-0.053,-0.0519,-0.0491,-0.0486,-0.035,-0.0215,0.0019,0.0207,0.0406,0.0613,0.0705,0.0782,0.0912,0.084,0.0943,0.1108,0.1103,0.1168,0.0906,0.0931,0.093,0.093,0.0929,0.0929,-0.0559,-0.0526,-0.0487,-0.0471,-0.0501,-0.0541,-0.0516,-0.0491,-0.0388,-0.0133,0.0078,0.0454,0.0655,0.0844,0.0879,0.0973,0.096,0.1061,0.1086,0.1092,0.1184,0.0897,0.0923,0.0922,0.0922,0.0921,0.0921,0,-0.0425,-0.0426,-0.0421,-0.0416,-0.0454,-0.0488,-0.0509,-0.0458,-0.0324,-0.0053,0.0269,0.0818,0.0977,0.109,0.1162,0.1237,0.1271,0.1281,0.1345,0.139,0.1171,0.1208,0.1262,0.1262,0.1261,0.1261,0.1261,0.1261,-0.035,-0.0305,-0.0322,-0.0342,-0.0377,-0.0385,-0.0387,-0.0314,-0.0151,0.0289,0.0711,0.1082,0.1306,0.1397,0.1476,0.1487,0.1605,0.1557,0.1617,0.1503,0.1486,0.147,0.1517,0.1635,0.1635,0.1862,0.1864,0.1866]}],[{"header":{"parameterUnit":"m.s-1","parameterCategory":2,"la1":30.2991,"la2":30.254,"lo1":-89.0895,"lo2":-89.0444,"dy":0.0017,"dx":0.0017,"nx":28,"ny":28,"refTime":"2025-05-25T21:00:00:Z","depth":"2","parameterNumber":2,"parameterNumberName":"U-component_of_CURRENTS"},"data":[0,0,0,0,0,0,0,0,0,0,0,0,0,0,0,0,0,0,0,0,0,0,0,0,0,0,0,0,0,0,0,0,0,0,0,0,0,0,0,0,0,0,0,0,0,0,0,0,0,0,0,0,0,0,0,0,0,0,-0.1926,-0.1927,0,-0.2056,-0.2057,-0.2059,-0.2144,-0.2145,-0.2145,-0.2146,-0.227,-0.2273,-0.2276,0,0,0,0,0,0,0,0,0,0,0,0,0,-0.1774,-0.1777,-0.1926,-0.1927,-0.1929,-0.2055,-0.2057,-0.2059,-0.2144,-0.2145,-0.2145,-0.2146,-0.2269,-0.2272,-0.2276,0,0,0,0,0,0,0,0,0,0,0,0,0,-0.1867,-0.1778,-0.1925,-0.1985,-0.1991,-0.2055,-0.2057,-0.206,-0.2144,-0.2145,-0.2145,-0.2146,-0.2268,-0.2272,-0.2276,-0.2292,0,0,-0.229,-0.2292,0,0,0,0,0,0,0,0,-0.1862,-0.1873,-0.1975,-0.1981,-0.1988,-0.2083,-0.205,-0.2137,-0.2144,-0.2088,-0.2146,-0.2146,-0.2205,-0.2215,-0.2241,-0.2298,-0.2303,-0.229,-0.2293,-0.2295,-0.2296,0,0,0,0,0,0,0,-0.1855,-0.1868,-0.1979,-0.1976,-0.1984,-0.2013,-0.2027,-0.2067,-0.2143,-0.2093,-0.2099,-0.211,-0.2209,-0.2236,-0.2244,-0.2305,-0.229,-0.2294,-0.2297,-0.2299,-0.2396,-0.2396,0,0,0,0,0,0,-0.1834,-0.1862,-0.1975,-0.1983,-0.1923,-0.2015,-0.2031,-0.2053,-0.2143,-0.2157,-0.211,-0.2114,-0.2228,-0.2239,-0.2249,-0.2276,-0.2295,-0.2299,-0.2301,-0.2396,-0.2396,-0.2396,0,0,0,0,0,0,-0.1831,-0.1843,-0.197,-0.1923,-0.1941,-0.2017,-0.2042,-0.2056,-0.2113,-0.2155,-0.217,-0.2156,-0.2229,-0.2242,-0.2277,-0.2281,-0.2301,-0.2305,-0.2396,-0.2396,-0.2396,-0.2328,0,0,0,0,0,0,-0.1826,-0.1842,-0.1869,-0.1922,-0.1943,-0.2021,-0.2041,-0.2058,-0.2116,-0.2124,-0.2199,-0.221,-0.2231,-0.227,-0.2282,-0.2288,-0.2308,-0.2396,-0.2396,-0.2396,-0.2331,-0.2326,-0.2322,0,0,0,0,0,-0.182,-0.183,-0.1869,-0.1884,-0.1972,-0.2022,-0.2036,-0.2092,-0.2118,-0.2146,-0.2174,-0.2209,-0.2278,-0.2273,-0.2287,-0.2294,-0.2396,-0.2396,-0.2396,-0.2332,-0.2327,-0.2322,0,0,0,0,0,0,-0.1803,-0.1842,-0.1885,-0.1918,-0.1979,-0.2036,-0.207,-0.2108,-0.2157,-0.2166,-0.2206,-0.2218,-0.2264,-0.2283,-0.2277,-0.2322,-0.2345,-0.2347,-0.2292,-0.2287,-0.2283,-0.226,-0.2312,0,0,0,0,0,-0.1807,-0.1791,-0.1882,-0.1897,-0.1949,-0.2021,-0.2055,-0.2091,-0.2132,-0.2159,-0.2202,-0.2239,-0.227,-0.2281,-0.2326,-0.2338,-0.2325,-0.2353,-0.2349,-0.2345,-0.2335,-0.2305,-0.2296,-0.2395,-0.2395,-0.2395,0,0,-0.1817,-0.1813,-0.1826,-0.1886,-0.1949,-0.1989,-0.2045,-0.2098,-0.2109,-0.2161,-0.2197,-0.2246,-0.2278,-0.2297,-0.2317,-0.231,-0.2306,-0.2345,-0.2341,-0.2333,-0.2304,-0.2293,-0.2285,-0.2395,-0.2395,-0.2395,0,0,-0.1779,-0.1831,-0.1827,-0.1867,-0.1934,-0.1972,-0.1995,-0.2082,-0.212,-0.2155,-0.2192,-0.2222,-0.2284,-0.2285,-0.2295,-0.2292,-0.2305,-0.2327,-0.2261,-0.2232,-0.2222,-0.2214,-0.2161,-0.2149,-0.2298,-0.2298,-0.2298,0,-0.1781,-0.1787,-0.184,-0.1845,-0.1863,-0.1965,-0.1988,-0.2037,-0.2104,-0.2121,-0.2159,-0.2224,-0.2267,-0.2251,-0.2252,-0.2281,-0.2262,-0.2275,-0.2222,-0.2214,-0.2207,-0.2155,-0.2142,-0.2295,-0.2295,-0.2296,-0.2296,0,-0.1766,-0.1771,-0.1775,-0.1794,-0.1829,-0.1854,-0.1934,-0.1975,-0.203,-0.2071,-0.2114,-0.2158,-0.2185,-0.2209,-0.2232,-0.2204,-0.2206,-0.2238,-0.2227,-0.2192,-0.214,-0.2128,-0.229,-0.2291,-0.2292,-0.2293,0,0,-0.1739,-0.1758,-0.1754,-0.1754,-0.1799,-0.1821,-0.1842,-0.1895,-0.191,-0.1983,-0.1984,-0.2043,-0.2091,-0.2104,-0.214,-0.211,-0.2046,-0.2146,-0.2146,-0.2078,-0.1959,-0.1903,-0.1885,-0.2069,-0.2067,-0.2066,-0.1934,0,-0.1712,-0.1676,-0.1695,-0.1678,-0.1697,-0.1752,-0.1757,-0.1801,-0.186,-0.1892,-0.1942,-0.1983,-0.2042,-0.206,-0.2039,-0.2078,-0.2016,-0.2078,-0.2018,-0.2015,-0.1957,-0.1869,-0.1745,-0.1613,-0.1922,-0.192,-0.1919,0,-0.1697,-0.1657,-0.1632,-0.161,-0.1635,-0.1628,-0.1645,-0.1668,-0.1729,-0.1782,-0.1815,-0.1885,-0.1884,-0.194,-0.1914,-0.1955,-0.1941,-0.1946,-0.1941,-0.1905,-0.1937,-0.1705,-0.158,-0.1898,-0.19,-0.1901,-0.1903,0,-0.1623,-0.1608,-0.1562,-0.1559,-0.157,-0.156,-0.1576,-0.1628,-0.166,-0.1712,-0.1743,-0.1768,-0.1791,-0.1784,-0.1835,-0.1867,-0.1794,-0.1834,-0.1744,-0.1739,-0.1628,-0.1617,-0.1759,-0.1759,-0.176,-0.176,-0.176,0,-0.155,-0.1519,-0.1526,-0.1496,-0.146,-0.1498,-0.1487,-0.152,-0.1575,-0.1601,-0.1684,-0.1695,-0.1759,-0.1757,-0.1777,-0.1722,-0.1738,-0.17,-0.1691,-0.1601,-0.1589,-0.1852,-0.1864,-0.1755,-0.1756,-0.1757,-0.1758,0,-0.1456,-0.1469,-0.1419,-0.1414,-0.1417,-0.1391,-0.1432,-0.1441,-0.1508,-0.1532,-0.155,-0.1628,-0.162,-0.1655,-0.164,-0.1636,-0.16,-0.1566,-0.1449,-0.1428,-0.157,-0.1581,-0.1421,-0.1418,-0.1415,-0.1412,-0.1411,0,-0.1392,-0.1352,-0.1336,-0.1322,-0.1313,-0.1306,-0.131,-0.1387,-0.1412,-0.1488,-0.1489,-0.1505,-0.1499,-0.1453,-0.1433,-0.1381,-0.1485,-0.1247,-0.1279,-0.1521,-0.153,-0.1545,-0.156,-0.1092,-0.1088,-0.1085,-0.1082,0,-0.1253,-0.1257,-0.1224,-0.1195,-0.119,-0.1189,-0.1209,-0.1222,-0.1315,-0.1342,-0.1365,-0.136,-0.1321,-0.1221,-0.1171,-0.1145,-0.1253,-0.1169,-0.1423,-0.1217,-0.1206,-0.1218,-0.1243,-0.1049,-0.1053,-0.1055,-0.1057,-0.1058,-0.1149,-0.1109,-0.1086,-0.1057,-0.1062,-0.1059,-0.1031,-0.1079,-0.1094,-0.1122,-0.1197,-0.1153,-0.1148,-0.0994,-0.0944,-0.0909,-0.1001,-0.0978,-0.0991,-0.1007,-0.1012,-0.0999,-0.0802,-0.0804,-0.0805,-0.0807,-0.0808,0,-0.1006,-0.0994,-0.0956,-0.093,-0.09,-0.0943,-0.0952,-0.0922,-0.0899,-0.0944,-0.0955,-0.0859,-0.0778,-0.0779,-0.0653,-0.0637,-0.0658,-0.063,-0.0656,-0.0686,-0.0714,-0.0707,-0.0414,-0.0414,-0.0413,-0.0412,0,0,-0.0933,-0.0872,-0.0864,-0.0777,-0.0765,-0.07,-0.0685,-0.0661,-0.0665,-0.0634,-0.0624,-0.0722,-0.0728,-0.0574,-0.0536,-0.0446,-0.0568,-0.0423,-0.0732,-0.079,-0.0817,-0.0898,-0.0919,0,0,0,0,0]},{"header":{"parameterUnit":"m.s-1","parameterCategory":2,"la1":30.2991,"la2":30.254,"lo1":-89.0895,"lo2":-89.0444,"dy":0.0017,"dx":0.0017,"nx":28,"ny":28,"refTime":"2025-05-25T21:00:00:Z","depth":"2","parameterNumber":3,"parameterNumberName":"V-component_of_CURRENTS"},"data":[0,0,0,0,0,0,0,0,0,0,0,0,0,0,0,0,0,0,0,0,0,0,0,0,0,0,0,0,0,0,0,0,0,0,0,0,0,0,0,0,0,0,0,0,0,0,0,0,0,0,0,0,0,0,0,0,0,0,-0.045,-0.0449,0,-0.0299,-0.0297,-0.0294,-0.0163,-0.0163,-0.0162,-0.0162,0.0134,0.0141,0.0148,0,0,0,0,0,0,0,0,0,0,0,0,0,-0.0498,-0.0498,-0.045,-0.0449,-0.0448,-0.03,-0.0297,-0.0294,-0.0164,-0.0163,-0.0162,-0.0162,0.0131,0.014,0.0149,0,0,0,0,0,0,0,0,0,0,0,0,0,-0.0416,-0.0498,-0.045,-0.0374,-0.0366,-0.03,-0.0297,-0.0293,-0.0164,-0.0163,-0.0162,-0.0161,0.0128,0.0139,0.015,0.0204,0,0,0.0184,0.0189,0,0,0,0,0,0,0,0,-0.0421,-0.0413,-0.0386,-0.0379,-0.037,-0.0259,-0.0206,-0.0123,-0.0164,-0.0229,-0.0162,-0.0161,0.0008,0.0029,0.0069,0.0218,0.023,0.0185,0.0192,0.0197,0.02,0,0,0,0,0,0,0,-0.0427,-0.0418,-0.0379,-0.0385,-0.0376,-0.0304,-0.0291,-0.0189,-0.0105,-0.0223,-0.0216,-0.0217,0.0015,0.0058,0.0077,0.0235,0.0185,0.0195,0.0201,0.0206,0.0505,0.0506,0,0,0,0,0,0,-0.0475,-0.0424,-0.0385,-0.0376,-0.0406,-0.0305,-0.029,-0.0287,-0.0109,-0.0086,-0.0218,-0.0212,0.0039,0.0064,0.0088,0.0186,0.0196,0.0207,0.0213,0.0504,0.0505,0.0507,0,0,0,0,0,0,-0.0476,-0.0472,-0.0391,-0.0405,-0.0391,-0.0307,-0.0303,-0.0284,-0.0239,-0.0109,-0.008,-0.0193,0.004,0.0073,0.0183,0.0198,0.0212,0.0222,0.0502,0.0504,0.0506,0.0367,0,0,0,0,0,0,-0.0478,-0.0473,-0.0484,-0.0409,-0.0393,-0.0357,-0.0304,-0.0282,-0.0246,-0.0236,-0.0078,-0.005,0.0043,0.0166,0.0194,0.0213,0.0231,0.0501,0.0503,0.0506,0.037,0.0364,0.0358,0,0,0,0,0,-0.048,-0.0495,-0.0485,-0.0481,-0.0411,-0.0359,-0.0342,-0.0272,-0.0247,-0.0227,-0.012,-0.0055,0.0202,0.0175,0.0209,0.0231,0.05,0.0503,0.0505,0.0372,0.0365,0.0358,0,0,0,0,0,0,-0.0521,-0.0483,-0.0469,-0.0473,-0.0428,-0.0341,-0.0326,-0.0282,-0.0183,-0.0169,-0.0041,-0.0005,0.0105,0.0187,0.0154,0.0328,0.0364,0.0373,0.0251,0.0245,0.024,0.0221,0.024,0,0,0,0,0,-0.0543,-0.0537,-0.0493,-0.0492,-0.0482,-0.0407,-0.038,-0.0333,-0.0246,-0.0203,-0.0092,0.003,0.0143,0.0203,0.0321,0.0405,0.0442,0.0445,0.0439,0.0434,0.0444,0.0488,0.0485,0.0516,0.0516,0.0516,0,0,-0.0563,-0.0539,-0.0538,-0.0501,-0.046,-0.0435,-0.0384,-0.0349,-0.0308,-0.0185,-0.0084,0.002,0.0164,0.0267,0.0323,0.0334,0.0439,0.0437,0.0431,0.0445,0.049,0.0487,0.0483,0.0518,0.0518,0.0518,0,0,-0.0589,-0.0579,-0.0582,-0.0549,-0.0508,-0.046,-0.046,-0.0376,-0.0321,-0.0226,-0.0124,-0.0037,0.0153,0.0236,0.0307,0.0338,0.0412,0.0399,0.035,0.039,0.0387,0.0384,0.0384,0.0383,0.0388,0.0387,0.0387,0,-0.0611,-0.0607,-0.0574,-0.0561,-0.0539,-0.048,-0.0469,-0.0406,-0.0289,-0.0239,-0.0206,0.004,0.0132,0.0252,0.0265,0.032,0.0357,0.0351,0.0376,0.0375,0.0375,0.0376,0.0376,0.0381,0.0382,0.0382,0.0383,0,-0.0632,-0.0626,-0.0625,-0.0589,-0.0562,-0.054,-0.0475,-0.043,-0.0364,-0.0282,-0.0151,-0.003,0.0112,0.0152,0.0224,0.0288,0.0316,0.0359,0.0374,0.0362,0.0365,0.0368,0.0372,0.0374,0.0376,0.0378,0,0,-0.0668,-0.0645,-0.0641,-0.0629,-0.0572,-0.0548,-0.0505,-0.0432,-0.0393,-0.0273,-0.0202,-0.004,0.0025,0.011,0.0198,0.023,0.0223,0.0293,0.0298,0.0258,0.0299,0.0328,0.0334,0.028,0.0281,0.0282,0.0283,0,-0.0684,-0.068,-0.0656,-0.0636,-0.0628,-0.0574,-0.0534,-0.0461,-0.038,-0.0296,-0.0178,-0.0067,0.0013,0.0064,0.0114,0.0226,0.0235,0.0218,0.0351,0.0354,0.0352,0.0341,0.0318,0.0322,0.0286,0.0287,0.0287,0,-0.0701,-0.0692,-0.0693,-0.0657,-0.065,-0.0629,-0.0569,-0.0521,-0.0408,-0.0344,-0.0231,-0.0124,-0.0025,0.0018,0.0166,0.0164,0.0218,0.0275,0.0278,0.0364,0.039,0.0344,0.0329,0.0293,0.0292,0.0292,0.0291,0,-0.0729,-0.0709,-0.0711,-0.0696,-0.0655,-0.0645,-0.0615,-0.0529,-0.0483,-0.038,-0.0332,-0.0182,-0.0106,-0.0,0.0149,0.0155,0.0293,0.0303,0.0366,0.0367,0.0406,0.041,0.0363,0.0363,0.0363,0.0363,0.0363,0,-0.0742,-0.0738,-0.0727,-0.0723,-0.0716,-0.0677,-0.0651,-0.0606,-0.0531,-0.0468,-0.0353,-0.0275,-0.0099,0.0022,0.0126,0.0275,0.0273,0.0358,0.038,0.0355,0.0354,0.0395,0.0399,0.0363,0.0363,0.0363,0.0363,0,-0.0764,-0.0759,-0.0757,-0.0737,-0.0731,-0.0725,-0.0687,-0.0664,-0.0596,-0.0524,-0.0496,-0.0334,-0.0176,-0.0011,0.0156,0.0245,0.0366,0.0406,0.035,0.0367,0.04,0.0397,0.0445,0.0446,0.0447,0.0448,0.0449,0,-0.0774,-0.0779,-0.0776,-0.0781,-0.0774,-0.0762,-0.0754,-0.07,-0.0669,-0.0545,-0.0509,-0.035,-0.0207,0.0048,0.0224,0.0385,0.04,0.0434,0.0436,0.0397,0.0414,0.0409,0.0405,0.0405,0.0405,0.0406,0.0406,0,-0.0785,-0.0789,-0.0792,-0.081,-0.0813,-0.081,-0.0791,-0.078,-0.0704,-0.0637,-0.0516,-0.0405,-0.0146,0.0064,0.0282,0.0373,0.0411,0.0444,0.0438,0.04,0.0365,0.0379,0.0375,0.0408,0.0408,0.0408,0.0408,0.0408,-0.0792,-0.0803,-0.0816,-0.0828,-0.084,-0.0848,-0.0841,-0.0808,-0.0757,-0.0634,-0.0541,-0.0351,-0.0163,0.017,0.0315,0.0453,0.0451,0.0469,0.0466,0.0463,0.0471,0.0442,0.0498,0.0498,0.0498,0.0499,0.0499,0,-0.0794,-0.0812,-0.083,-0.0852,-0.0873,-0.0869,-0.0856,-0.0828,-0.0768,-0.0625,-0.0503,-0.0288,-0.0059,0.0151,0.0372,0.0483,0.0464,0.0491,0.0446,0.0444,0.0441,0.0446,0.0467,0.0467,0.0467,0.0468,0,0,-0.0798,-0.082,-0.0833,-0.0871,-0.0888,-0.09,-0.0892,-0.0832,-0.0729,-0.0575,-0.0425,-0.0267,-0.0021,0.0114,0.0262,0.0383,0.0377,0.0384,0.0399,0.0325,0.0321,0.042,0.0425,0,0,0,0,0]}],[{"header":{"parameterUnit":"m.s-1","parameterCategory":2,"la1":30.2991,"la2":30.254,"lo1":-89.0895,"lo2":-89.0444,"dy":0.0017,"dx":0.0017,"nx":28,"ny":28,"refTime":"2025-05-25T21:00:00:Z","depth":"4","parameterNumber":2,"parameterNumberName":"U-component_of_CURRENTS"},"data":[0,0,0,0,0,0,0,0,0,0,0,0,0,0,0,0,0,0,0,0,0,0,0,0,0,0,0,0,0,0,0,0,0,0,0,0,0,0,0,0,0,0,0,0,0,0,0,0,0,0,0,0,0,0,0,0,0,0,-0.1048,-0.1049,0,-0.1096,-0.1096,-0.1096,-0.1118,-0.1119,-0.1119,-0.1119,-0.1095,-0.1094,-0.1093,0,0,0,0,0,0,0,0,0,0,0,0,0,-0.0955,-0.0956,-0.1048,-0.1049,-0.105,-0.1096,-0.1096,-0.1096,-0.1118,-0.1119,-0.1119,-0.112,-0.1096,-0.1094,-0.1093,0,0,0,0,0,0,0,0,0,0,0,0,0,-0.0994,-0.0957,-0.1047,-0.107,-0.1072,-0.1096,-0.1096,-0.1096,-0.1118,-0.1119,-0.1119,-0.112,-0.1096,-0.1095,-0.1093,-0.1073,0,0,-0.1089,-0.1088,0,0,0,0,0,0,0,0,-0.0992,-0.0997,-0.1065,-0.1068,-0.1071,-0.1106,-0.1055,-0.1086,-0.1118,-0.1096,-0.1119,-0.112,-0.1095,-0.1093,-0.1096,-0.1071,-0.107,-0.1088,-0.1088,-0.1087,-0.1086,0,0,0,0,0,0,0,-0.0989,-0.0995,-0.1062,-0.1066,-0.107,-0.1071,-0.1077,-0.1061,-0.1086,-0.1098,-0.1101,-0.1113,-0.1095,-0.1097,-0.1095,-0.107,-0.1088,-0.1087,-0.1086,-0.1086,-0.1146,-0.1148,0,0,0,0,0,0,-0.0993,-0.0992,-0.1061,-0.1064,-0.1038,-0.1073,-0.1079,-0.109,-0.1088,-0.1091,-0.1113,-0.1114,-0.1099,-0.1097,-0.1094,-0.1118,-0.1087,-0.1085,-0.1085,-0.1143,-0.1146,-0.1149,0,0,0,0,0,0,-0.0991,-0.0999,-0.1059,-0.1033,-0.1041,-0.1074,-0.1087,-0.1091,-0.1115,-0.1101,-0.1101,-0.1136,-0.11,-0.1096,-0.1115,-0.1115,-0.1085,-0.1083,-0.114,-0.1144,-0.1147,-0.1134,0,0,0,0,0,0,-0.0988,-0.0997,-0.1013,-0.1033,-0.1043,-0.109,-0.1087,-0.1092,-0.1123,-0.1126,-0.112,-0.1118,-0.11,-0.1117,-0.1113,-0.1113,-0.1082,-0.1137,-0.1142,-0.1146,-0.1131,-0.1137,-0.1142,0,0,0,0,0,-0.0984,-0.1008,-0.1013,-0.1022,-0.1061,-0.1091,-0.1096,-0.1117,-0.1124,-0.1139,-0.1147,-0.1119,-0.1145,-0.1118,-0.1112,-0.1111,-0.1135,-0.114,-0.1146,-0.1129,-0.1136,-0.1141,0,0,0,0,0,0,-0.0982,-0.1014,-0.1019,-0.1053,-0.1077,-0.1097,-0.1123,-0.113,-0.1148,-0.1158,-0.1137,-0.1135,-0.1149,-0.1151,-0.1122,-0.1153,-0.114,-0.1145,-0.1129,-0.1135,-0.1141,-0.113,-0.1081,0,0,0,0,0,-0.0987,-0.1005,-0.1037,-0.1061,-0.1083,-0.1103,-0.1122,-0.1136,-0.1154,-0.1164,-0.1157,-0.1166,-0.1165,-0.1169,-0.1169,-0.1178,-0.1166,-0.1186,-0.1191,-0.1195,-0.1191,-0.1177,-0.1179,-0.1167,-0.1167,-0.1167,0,0,-0.0992,-0.1011,-0.1022,-0.106,-0.1084,-0.1108,-0.1116,-0.1156,-0.1166,-0.1156,-0.1173,-0.1175,-0.1175,-0.1186,-0.1194,-0.1187,-0.1198,-0.1202,-0.1204,-0.1198,-0.1183,-0.1183,-0.1184,-0.1171,-0.117,-0.117,0,0,-0.1004,-0.1034,-0.1054,-0.1076,-0.1119,-0.1131,-0.1148,-0.1181,-0.1193,-0.1214,-0.1207,-0.1209,-0.1226,-0.1208,-0.1204,-0.1243,-0.1221,-0.1269,-0.1278,-0.1265,-0.1264,-0.1263,-0.1256,-0.1255,-0.1274,-0.1274,-0.1274,0,-0.1007,-0.1033,-0.1065,-0.109,-0.1109,-0.1143,-0.1166,-0.1183,-0.121,-0.1212,-0.1228,-0.1234,-0.1224,-0.1211,-0.1237,-0.1242,-0.1253,-0.124,-0.1265,-0.1264,-0.1263,-0.1256,-0.1254,-0.1274,-0.1274,-0.1274,-0.1274,0,-0.1032,-0.1053,-0.1074,-0.1105,-0.1132,-0.1162,-0.1193,-0.1214,-0.1234,-0.1238,-0.1247,-0.1241,-0.1241,-0.1247,-0.1253,-0.1251,-0.1266,-0.1262,-0.1232,-0.1262,-0.1255,-0.1253,-0.1274,-0.1274,-0.1274,-0.1274,0,0,-0.1028,-0.1076,-0.1083,-0.1094,-0.1143,-0.1165,-0.1191,-0.1212,-0.1224,-0.1244,-0.1246,-0.1243,-0.1246,-0.1246,-0.1245,-0.1242,-0.1241,-0.1269,-0.1268,-0.123,-0.1235,-0.1157,-0.1147,-0.1252,-0.1252,-0.1251,-0.1233,0,-0.1032,-0.1059,-0.109,-0.1117,-0.1136,-0.1173,-0.119,-0.1214,-0.1236,-0.125,-0.124,-0.1246,-0.1244,-0.1253,-0.1247,-0.1249,-0.1238,-0.1248,-0.124,-0.1239,-0.1138,-0.1142,-0.125,-0.1231,-0.1231,-0.1231,-0.1231,0,-0.1041,-0.1056,-0.1077,-0.1109,-0.1127,-0.1149,-0.1183,-0.1205,-0.1229,-0.1248,-0.1249,-0.1256,-0.1246,-0.1252,-0.1234,-0.1254,-0.1248,-0.1243,-0.1242,-0.1167,-0.1156,-0.1199,-0.1227,-0.1227,-0.1228,-0.1228,-0.1228,0,-0.0998,-0.1044,-0.1052,-0.1066,-0.1114,-0.1133,-0.1164,-0.1198,-0.1217,-0.1246,-0.1265,-0.1255,-0.1258,-0.1249,-0.1242,-0.1253,-0.1231,-0.1229,-0.1141,-0.1136,-0.1215,-0.1216,-0.1204,-0.1204,-0.1204,-0.1204,-0.1204,0,-0.0966,-0.098,-0.1036,-0.1037,-0.106,-0.1113,-0.1138,-0.1169,-0.1213,-0.1224,-0.126,-0.1255,-0.1266,-0.1257,-0.1247,-0.1184,-0.1222,-0.1132,-0.1118,-0.1216,-0.1218,-0.1214,-0.1215,-0.1203,-0.1204,-0.1204,-0.1204,0,-0.0902,-0.0938,-0.0955,-0.1011,-0.1034,-0.1052,-0.1122,-0.1136,-0.1195,-0.1214,-0.1226,-0.126,-0.1234,-0.123,-0.121,-0.1172,-0.113,-0.1097,-0.1208,-0.1202,-0.1046,-0.1048,-0.0988,-0.0985,-0.0982,-0.098,-0.0978,0,-0.0859,-0.086,-0.0922,-0.0935,-0.0961,-0.1004,-0.1028,-0.1107,-0.1125,-0.1195,-0.119,-0.1199,-0.1201,-0.1103,-0.1114,-0.1063,-0.1049,-0.1037,-0.1031,-0.1028,-0.1021,-0.1027,-0.1032,-0.0974,-0.0973,-0.0973,-0.0972,0,-0.0779,-0.0812,-0.0828,-0.0853,-0.0885,-0.0917,-0.0964,-0.0972,-0.1056,-0.1125,-0.1112,-0.1096,-0.1063,-0.1031,-0.1,-0.0968,-0.1051,-0.1009,-0.1014,-0.1008,-0.101,-0.1007,-0.1015,-0.0963,-0.0964,-0.0965,-0.0965,0,-0.0724,-0.0718,-0.0745,-0.0762,-0.08,-0.0812,-0.0854,-0.0878,-0.0913,-0.1006,-0.0993,-0.1007,-0.1044,-0.098,-0.0952,-0.0911,-0.0891,-0.0875,-0.0887,-0.0897,-0.0874,-0.0864,-0.0747,0,0,0,0,0,-0.0663,-0.0648,-0.0651,-0.0667,-0.0702,-0.0725,-0.0798,-0.0848,-0.0936,-0.0897,-0.0946,-0.091,-0.0871,-0.0881,-0.0811,-0.0894,-0.0888,-0.0813,-0.0875,-0.0912,-0.0923,-0.0903,0,0,0,0,0,0,-0.0621,-0.0622,-0.0618,-0.0583,-0.0575,-0.0608,-0.0652,-0.0719,-0.0709,-0.0799,-0.0771,-0.0848,-0.0807,-0.0873,-0.0783,-0.0786,-0.0808,-0.0831,-0.0829,-0.0906,-0.0916,-0.0924,-0.0908,0,0,0,0,0]},{"header":{"parameterUnit":"m.s-1","parameterCategory":2,"la1":30.2991,"la2":30.254,"lo1":-89.0895,"lo2":-89.0444,"dy":0.0017,"dx":0.0017,"nx":28,"ny":28,"refTime":"2025-05-25T21:00:00:Z","depth":"4","parameterNumber":3,"parameterNumberName":"V-component_of_CURRENTS"},"data":[0,0,0,0,0,0,0,0,0,0,0,0,0,0,0,0,0,0,0,0,0,0,0,0,0,0,0,0,0,0,0,0,0,0,0,0,0,0,0,0,0,0,0,0,0,0,0,0,0,0,0,0,0,0,0,0,0,0,-0.0341,-0.0341,0,-0.0298,-0.0297,-0.0296,-0.0252,-0.0252,-0.0252,-0.0251,-0.0236,-0.0236,-0.0236,0,0,0,0,0,0,0,0,0,0,0,0,0,-0.0337,-0.0337,-0.0342,-0.0341,-0.0341,-0.0298,-0.0297,-0.0296,-0.0252,-0.0252,-0.0251,-0.0251,-0.0236,-0.0236,-0.0236,0,0,0,0,0,0,0,0,0,0,0,0,0,-0.0317,-0.0337,-0.0342,-0.0317,-0.0315,-0.0298,-0.0297,-0.0296,-0.0252,-0.0252,-0.0251,-0.0251,-0.0237,-0.0236,-0.0236,-0.0241,0,0,-0.0235,-0.0235,0,0,0,0,0,0,0,0,-0.0318,-0.0317,-0.0321,-0.0319,-0.0316,-0.0283,-0.029,-0.028,-0.0252,-0.0272,-0.0251,-0.0251,-0.0258,-0.0256,-0.0242,-0.0241,-0.024,-0.0235,-0.0235,-0.0235,-0.0235,0,0,0,0,0,0,0,-0.032,-0.0318,-0.032,-0.0321,-0.0318,-0.0291,-0.0288,-0.0287,-0.0265,-0.027,-0.0268,-0.0269,-0.0256,-0.0242,-0.0242,-0.024,-0.0235,-0.0235,-0.0235,-0.0235,-0.0246,-0.0247,0,0,0,0,0,0,-0.0336,-0.032,-0.0322,-0.0319,-0.0321,-0.0292,-0.0288,-0.0291,-0.0264,-0.026,-0.0269,-0.0267,-0.0243,-0.0242,-0.0241,-0.0253,-0.0235,-0.0235,-0.0234,-0.0246,-0.0246,-0.0247,0,0,0,0,0,0,-0.0336,-0.0337,-0.0323,-0.0321,-0.0318,-0.0293,-0.0296,-0.029,-0.0284,-0.0264,-0.026,-0.027,-0.0243,-0.0241,-0.0236,-0.0252,-0.0235,-0.0234,-0.0245,-0.0246,-0.0247,-0.0273,0,0,0,0,0,0,-0.0336,-0.0337,-0.0342,-0.0323,-0.0319,-0.0322,-0.0297,-0.029,-0.0287,-0.0283,-0.0263,-0.0261,-0.0242,-0.0237,-0.0236,-0.0251,-0.0234,-0.0245,-0.0246,-0.0246,-0.0272,-0.0275,-0.0277,0,0,0,0,0,-0.0336,-0.0348,-0.0342,-0.0343,-0.0328,-0.0323,-0.0318,-0.0296,-0.0287,-0.0287,-0.0266,-0.0262,-0.0242,-0.0236,-0.0236,-0.0251,-0.0244,-0.0245,-0.0246,-0.027,-0.0274,-0.0277,0,0,0,0,0,0,-0.035,-0.0345,-0.0338,-0.0348,-0.034,-0.0317,-0.0317,-0.0305,-0.0287,-0.0286,-0.0263,-0.0259,-0.0265,-0.0254,-0.0248,-0.0258,-0.0245,-0.0246,-0.0264,-0.0267,-0.027,-0.026,-0.0234,0,0,0,0,0,-0.0357,-0.0365,-0.0354,-0.0363,-0.0362,-0.0342,-0.0338,-0.0326,-0.031,-0.0302,-0.0284,-0.0271,-0.0268,-0.0263,-0.0258,-0.026,-0.0231,-0.0272,-0.0274,-0.0277,-0.0269,-0.0246,-0.0246,-0.025,-0.025,-0.025,0,0,-0.0365,-0.0365,-0.0368,-0.0367,-0.0358,-0.0358,-0.0338,-0.0339,-0.0334,-0.0306,-0.0293,-0.0285,-0.0272,-0.0271,-0.0273,-0.0263,-0.0257,-0.0278,-0.028,-0.027,-0.0247,-0.0247,-0.0246,-0.0251,-0.0251,-0.0251,0,0,-0.039,-0.0387,-0.04,-0.0395,-0.0393,-0.0378,-0.0384,-0.0365,-0.0352,-0.0343,-0.0324,-0.0321,-0.0308,-0.0298,-0.0293,-0.0311,-0.0277,-0.0315,-0.0315,-0.0295,-0.0294,-0.0293,-0.0238,-0.0232,-0.0311,-0.0311,-0.0311,0,-0.0398,-0.0413,-0.0404,-0.0413,-0.041,-0.0391,-0.0399,-0.0384,-0.0363,-0.035,-0.0345,-0.0318,-0.0321,-0.0311,-0.0317,-0.0319,-0.0282,-0.0304,-0.0297,-0.0296,-0.0294,-0.0239,-0.0232,-0.0312,-0.0312,-0.0312,-0.0312,0,-0.0428,-0.0437,-0.0446,-0.0447,-0.0443,-0.0448,-0.043,-0.042,-0.0405,-0.0382,-0.0368,-0.0354,-0.0333,-0.0344,-0.0336,-0.0329,-0.0297,-0.0307,-0.0287,-0.0295,-0.0236,-0.0228,-0.0314,-0.0314,-0.0313,-0.0313,0,0,-0.0447,-0.0463,-0.0465,-0.0468,-0.046,-0.0459,-0.0453,-0.0434,-0.042,-0.0398,-0.0371,-0.0376,-0.0355,-0.0349,-0.034,-0.0324,-0.0291,-0.0308,-0.0306,-0.0249,-0.0208,-0.0192,-0.0181,-0.0294,-0.0294,-0.0293,-0.0164,0,-0.0469,-0.0497,-0.0494,-0.0506,-0.0513,-0.0491,-0.0483,-0.0463,-0.0435,-0.04,-0.0379,-0.0359,-0.036,-0.0352,-0.0334,-0.03,-0.0274,-0.0323,-0.0212,-0.0208,-0.019,-0.0173,-0.0291,-0.0158,-0.0156,-0.0155,-0.0154,0,-0.0492,-0.0508,-0.0533,-0.053,-0.053,-0.0533,-0.0506,-0.0495,-0.0446,-0.0422,-0.0384,-0.0353,-0.0317,-0.033,-0.0252,-0.0275,-0.0244,-0.0218,-0.0213,-0.0183,-0.0178,-0.0153,-0.0139,-0.014,-0.0142,-0.0143,-0.0143,0,-0.0507,-0.0527,-0.0548,-0.0548,-0.0547,-0.0549,-0.054,-0.0504,-0.0488,-0.0431,-0.0404,-0.0343,-0.0312,-0.0262,-0.0199,-0.0222,-0.01,-0.013,-0.0079,-0.0075,-0.0116,-0.0119,-0.0086,-0.0086,-0.0086,-0.0086,-0.0087,0,-0.0522,-0.0537,-0.056,-0.057,-0.0584,-0.0572,-0.0569,-0.0545,-0.0506,-0.0478,-0.0418,-0.0375,-0.0298,-0.0216,-0.0169,-0.0075,-0.0073,-0.0062,-0.0044,-0.0128,-0.0134,-0.0109,-0.0113,-0.0082,-0.0083,-0.0084,-0.0084,0,-0.0532,-0.055,-0.0574,-0.0589,-0.0596,-0.0604,-0.06,-0.059,-0.0548,-0.0506,-0.0488,-0.0385,-0.0276,-0.0178,-0.0077,-0.004,0.0041,0.0064,0.0012,0.0022,0.0048,0.0041,0.014,0.0141,0.0143,0.0144,0.0145,0,-0.0539,-0.0557,-0.0594,-0.0613,-0.0625,-0.0638,-0.0646,-0.0618,-0.0601,-0.0513,-0.0488,-0.0368,-0.0294,-0.01,-0.0021,0.0114,0.01,0.0157,0.0058,0.0063,0.007,0.0061,0.0052,0.0147,0.0147,0.0147,0.0148,0,-0.0548,-0.0568,-0.059,-0.0635,-0.0658,-0.0674,-0.0678,-0.0667,-0.062,-0.0584,-0.047,-0.0361,-0.0223,-0.0091,0.003,0.0104,0.0131,0.017,0.0166,0.0074,0.0072,0.0076,0.0066,0.0152,0.0152,0.0151,0.0151,0,-0.0553,-0.0573,-0.0611,-0.0642,-0.068,-0.0696,-0.0695,-0.0661,-0.0634,-0.0535,-0.0496,-0.0344,-0.0252,-0.0095,0.001,0.0106,0.0093,0.0091,0.0091,0.0087,0.0016,0.0002,0.0091,0,0,0,0,0,-0.0554,-0.0578,-0.0613,-0.0652,-0.0691,-0.0709,-0.071,-0.0698,-0.0654,-0.0578,-0.0534,-0.0405,-0.022,-0.0132,-0.0036,-0.0,0.0093,0.0112,0.0085,0.0178,0.0173,0.0097,0,0,0,0,0,0,-0.0557,-0.0593,-0.061,-0.0655,-0.0683,-0.0718,-0.072,-0.069,-0.0638,-0.0577,-0.0473,-0.0402,-0.0222,-0.0277,-0.004,-0.0008,-0.0018,0.0205,0.0206,0.0181,0.0176,0.0172,0.0092,0,0,0,0,0]}]]